Regional Weather Roundup
Issued by NWS

Home | Current Version | Previous Version | Text Only | Print | Product List | Glossary On
Versions: 1 2 3 4 5 6 7 8 9 10 11 12 13 14 15 16 17 18 19 20 21 22 23 24 25 26 27 28 29 30 31 32 33 34 35 36 37 38 39 40 41 42 43 44 45 46 47 48 49 50
000
ASCA44 KEWX 291420
RWRMX

LATIN AMERICA AND CARIBBEAN REGIONAL WEATHER ROUNDUP
NATIONAL WEATHER SERVICE AUSTIN/SAN ANTONIO TX
800 AM CST THU JAN 29 2015

NOTE: "FAIR" INDICATED FEW OR NO CLOUDS BELOW 12,000 FEET WITH NO
SIGNIFICANT WEATHER AND/OR OBSTRUCTIONS TO VISIBILITY.

BAJA CALIFORNIA

CITY           SKY/WX    TMP DP  RH WIND       PRES   REMARKS
LORETO         CLOUDY    68  55  64 N7        29.99
MEXICALI       CLOUDY    59  50  72 W7        30.05
TIJUANA        MOCLDY    66  36  32 E8        30.03R

NORTHWESTERN MEXICO

CITY           SKY/WX    TMP DP  RH WIND       PRES   REMARKS
CULIACAN       MOCLDY    63  59  88 CALM      29.92
DURANGO        PTCLDY    41  36  81 CALM      30.30R
GUAYMAS        CLOUDY    68  61  77 NE6       29.95
HERMOSILLO     PTCLDY    64  59  82 CALM      30.03
CD. JUAREZ     MOCLDY    46  32  57 CALM      30.18
OBREGON        MOCLDY    61  55  82 S3        29.92

NORTHEASTERN MEXICO

CITY           SKY/WX    TMP DP  RH WIND       PRES   REMARKS
MATAMOROS      PTCLDY    59  59 100 CALM      30.19
MONCLOVA       PTCLDY    54  43  66 CALM      30.14
MONTERREY      CLEAR     48  45  87 W7        30.14R WCI  45
NUEVO LAREDO   CLEAR     57  54  88 CALM      30.15
PIEDRAS NEGRAS CLEAR     50  43  76 E6        30.16  WCI  48
REYNOSA        FOG       55  54  94 SE3       30.16  VSB 1/4
SALTILLO       PTCLDY    48  41  76 CALM      30.29R
TORREON        PTCLDY    50  39  66 CALM      30.19R
CD. VICTORIA   CLEAR     50  50 100 SW6       30.16  WCI  48

WESTERN MEXICO

CITY           SKY/WX    TMP DP  RH WIND       PRES   REMARKS
AGUASCALIENTES PTCLDY    45  30  57 N7        30.31  WCI  41
COLIMA         PTCLDY    72  55  56 CALM      30.01R
DEL BAJIO      PTCLDY    46  34  61 N5        30.35R WCI  44
GUADALAJARA    PTCLDY    46  39  76 CALM      30.21
MANZANILLO     PTCLDY    72  61  68 N6        29.87
MAZATLAN       MOCLDY    64  61  88 N7        29.88R
P. VALLARTA    PTCLDY    68  66  94 NE3       29.87S
URUAPAN        CLEAR     50  48  93 CALM      30.17R
ZACATECAS        N/A    N/A N/A N/A MISG        N/A

CENTRAL MEXICO

CITY           SKY/WX    TMP DP  RH WIND       PRES   REMARKS
CUERNAVACA     CLEAR     57  37  47 CALM      30.18R
MEXICO CITY    CLEAR     45  32  61 E5        30.37R WCI  42
MORELIA        PTCLDY    45  37  76 CALM      30.29
POZA RICA      SUNNY     57  55  94 W7        30.18R
PUEBLA         SUNNY     43  27  52 NW12      30.33R WCI  37
QUERETARO      PTCLDY    39  36  87 CALM      30.35R
S. LUIS POTOSI CLEAR     39  30  70 CALM      30.31R
TAMPICO        CLEAR     57  55  94 CALM      30.17
TOLUCA         PTCLDY    32  28  86 CALM      30.41R

SOUTHERN MEXICO

CITY           SKY/WX    TMP DP  RH WIND       PRES   REMARKS
ACAPULCO       MOSUNNY   73  68  83 N5        29.90R
B. DE HUATULCO MOSUNNY   70  64  83 CALM      29.96
OAXACA         SUNNY     41  30  65 N8        30.28R WCI  36
P. ESCONDIDO   SUNNY     68  59  73 E18       30.04R
VERACRUZ       SUNNY     57  54  88 NW3       30.16R
ZIHUATANEJO    CLEAR     70  64  83 CALM      29.89R

YUCATAN PENINSULA

CITY           SKY/WX    TMP DP  RH WIND       PRES   REMARKS
CAMPECHE       SUNNY     63  61  94 CALM      30.13R
CANCUN         MOSUNNY   73  59  60 NE6       30.16R
CHETUMAL       MOSUNNY   66  57  72 N9        30.11R
CD. DEL CARMEN MOSUNNY   70  66  88 SE7       30.14
COZUMEL        PTSUNNY   70  61  73 E9        30.15R
MERIDA         SUNNY     66  57  72 E8        30.18R
MINATITLAN     SUNNY     61  57  88 CALM      30.12
TAPACHULA      SUNNY     72  64  78 CALM      29.93R
TUX. GUTIERREZ SUNNY     55  52  88 CALM      30.14R
VILLAHERMOSA   MOSUNNY   61  61 100 CALM      30.15R

CENTRAL AMERICA

CITY           SKY/WX    TMP DP  RH WIND       PRES   REMARKS
BELIZE CITY    PTSUNNY   66  64  94 CALM      30.12R
MANAGUA          N/A    N/A N/A N/A E7        29.89S

CARIBBEAN

CITY           SKY/WX    TMP DP  RH WIND       PRES   REMARKS
ARUBA          MOSUNNY   84  72  65 E22       29.92S
CURACAO        MOSUNNY   84  73  70 E15       29.94S HX  91
KINGSTON       MOSUNNY   81  70  69 VRB2      29.97S
NASSAU         PTSUNNY   66  52  59 NE8       30.22R
SAN JUAN       PTSUNNY   81  72  74 E7        30.06R
SANTO DOMINGO  MOSUNNY   77  70  78 N12       30.03S
ST. KITTS      MOSUNNY   82  70  65 E9        30.03
ST. MAARTEN    MOSUNNY   82  70  65 E8        30.03S

$$



USA.gov is the U.S. government's official web portal to all federal, state and local government web resources and services.